Location: Dead Woman Crossing
(43.5369°N, 106.3228°W)
Time: 06:32:29
(UTC+00:00)

COSMOS 2251 DEB - Pass Details

Date: 09 December 2022
Orbit: 765 x 800 km, 74.0° (Epoch: 27 January)

Event Time Altitude Azimuth Distance (km) Brightness Sun altitude
Rises 00:24:43 0° 339° (NNW) 3,251 ? -9.9°
Reaches altitude 10° 00:27:07 10° 339° (NNW) 2,317 ? -10.3°
Maximum altitude 00:32:23 85° 250° (WSW) 774 ? -11.2°
Drops below altitude 10° 00:37:35 10° 163° (SSE) 2,295 ? -12.1°
Sets 00:39:56 0° 163° (SSE) 3,217 ? -12.5°
